Evansville, IN

1:01 AM CDT on July 26, 2017 (GMT -0500)
Evansville Regional

Weather History for KEVV - September, 2014

Change the Weather History Date:

Sunday, September 14, 2014

  Actual Average Record
Temperature  
Mean Temperature 61 °F 70 °F  
Max Temperature 73 °F 82 °F 100 °F (1939)
Min Temperature 49 °F 58 °F 37 °F (1964)
Degree Days  
Heating Degree Days 4 1  
Month to date heating degree days 14 4  
Since 1 July heating degree days 14 5  
Cooling Degree Days 0 6  
Month to date cooling degree days 108 108  
Year to date cooling degree days 1388 1307  
Growing Degree Days 10 (Base 50)    
Moisture  
Dew Point 48 °F    
Average Humidity 66    
Maximum Humidity 93    
Minimum Humidity 38    
Precipitation  
Precipitation 0.00 in 0.11 in 2.08 in (1978)
Month to date precipitation 1.64 1.42  
Year to date precipitation 35.82 32.34  
Snow  
Snow 0.00 in 0.00 in 0.00 in ()
Month to date snowfall 0.0 0.0  
Since 1 July snowfall 0.0 0.0  
Since 1 September snowfall 0.0 0.0  
Snow Depth 0.00 in    
Sea Level Pressure  
Sea Level Pressure 30.25 in    
Wind  
Wind Speed 2 mph (North)    
Max Wind Speed 8 mph    
Max Gust Speed 9 mph    
Visibility 10 miles    
Events      
T = Trace of Precipitation, MM = Missing Value Source: NWS Daily Summary

Daily Weather History Graph

Daily Weather History Graph

Search for Another Location

Airport or City:

Trip Planner

Search our weather history database for the weather conditions in past years. The results will help you decide how hot, cold, wet, or windy it might be!

Date:

Astronomy

Sep. 14, 2014 Rise Set
Actual Time 6:31 AM CDT 6:59 PM CDT
Civil Twilight 6:04 AM CDT 7:26 PM CDT
Nautical Twilight 5:33 AM CDT 7:57 PM CDT
Astronomical Twilight 5:01 AM CDT 8:28 PM CDT
Moon 10:57 PM CDT (9/14) 12:31 PM CDT (9/14)
Length of Visible Light 13h 21m
Length of Day
12h 28m
Waning Gibbous, 64% of the Moon is Illuminated
Sep 14
Waning Gibbous
Sep 15
Last Quarter
Sep 24
New
Oct 1
First Quarter
Oct 8
Full

Hourly Weather History & Observations

Time (CDT) Temp. Dew Point Humidity Pressure Visibility Wind Dir Wind Speed Gust Speed Precip Events Conditions
12:54 AM 50.0 °F 46.0 °F 86% 30.29 in 10.0 mi North 3.5 mph - N/A   Clear
1:54 AM 48.9 °F 46.0 °F 90% 30.28 in 10.0 mi Calm Calm - N/A   Clear
2:54 AM 50.0 °F 46.0 °F 86% 30.29 in 10.0 mi Calm Calm - N/A   Clear
3:54 AM 50.0 °F 46.0 °F 86% 30.28 in 10.0 mi North 4.6 mph - N/A   Clear
4:54 AM 50.0 °F 45.0 °F 83% 30.28 in 10.0 mi North 4.6 mph - N/A   Clear
5:54 AM 48.9 °F 45.0 °F 86% 30.29 in 10.0 mi Calm Calm - N/A   Clear
6:54 AM 50.0 °F 45.0 °F 83% 30.30 in 10.0 mi NNE 4.6 mph - N/A   Clear
7:54 AM 52.0 °F 46.0 °F 80% 30.30 in 10.0 mi NNE 4.6 mph - N/A   Clear
8:54 AM 55.9 °F 48.0 °F 75% 30.31 in 10.0 mi NNE 3.5 mph - N/A   Clear
9:54 AM 60.1 °F 48.9 °F 67% 30.31 in 10.0 mi Calm Calm - N/A   Clear
10:54 AM 64.0 °F 46.9 °F 54% 30.30 in 10.0 mi Calm Calm - N/A   Clear
11:54 AM 66.9 °F 46.9 °F 49% 30.29 in 10.0 mi Variable 3.5 mph - N/A   Clear
12:54 PM 69.1 °F 46.9 °F 45% 30.27 in 10.0 mi NE 3.5 mph - N/A   Clear
1:54 PM 69.1 °F 46.9 °F 45% 30.25 in 10.0 mi West 5.8 mph - N/A   Clear
2:54 PM 71.1 °F 46.9 °F 42% 30.22 in 10.0 mi Calm Calm - N/A   Clear
3:54 PM 71.1 °F 46.9 °F 42% 30.20 in 10.0 mi Variable 3.5 mph - N/A   Clear
4:54 PM 71.1 °F 45.0 °F 39% 30.20 in 10.0 mi Calm Calm - N/A   Clear
5:54 PM 72.0 °F 46.0 °F 40% 30.19 in 10.0 mi WNW 3.5 mph - N/A   Clear
6:54 PM 64.9 °F 52.0 °F 63% 30.20 in 10.0 mi NW 3.5 mph - N/A   Clear
7:54 PM 61.0 °F 53.1 °F 75% 30.20 in 10.0 mi Calm Calm - N/A   Clear
8:54 PM 57.9 °F 51.1 °F 78% 30.21 in 10.0 mi SW 4.6 mph - N/A   Clear
9:54 PM 57.0 °F 50.0 °F 77% 30.21 in 10.0 mi Calm Calm - N/A   Clear
10:54 PM 55.0 °F 51.1 °F 86% 30.21 in 10.0 mi Calm Calm - N/A   Clear
11:54 PM 54.0 °F 51.1 °F 90% 30.20 in 10.0 mi Calm Calm - N/A   Clear